Station LDTM4 - 9087023 - Ludington, MI Image indicating link to RSS feed of recent meteorological observations for station LDTM4


Conditions at LDTM4 as of
(4:30 am EDT)
0830 GMT on 04/17/2024:
     

Click on the graph icon in the table below to see a time series plot of the last five days of that observation.

5-day plot - Wind Direction Wind Direction (WDIR): E ( 90 deg true )
5-day plot - Wind Speed Wind Speed (WSPD): 11.1 kts
5-day plot - Wind Gust Wind Gust (GST): 14.0 kts
5-day plot - Air Temperature Air Temperature (ATMP): 48.2 °F
5-day plot - Dew Point Dew Point (DEWP): 46.0 °F
5-day plot - Wind Chill Wind Chill (CHILL): 43.0 °F
5-day plot - Wind Speed at 10 Meters Wind Speed at 10 meters (WSPD10M): 11.7 kts
5-day plot - Wind Speed at 20 Meters Wind Speed at 20 meters (WSPD20M): 11.7 kts
5-day plot -  Wind Speed, Wind Gust and Atmospheric Pressure Combined plot of Wind Speed, Gust, and Air Pressure
NOS Water Level Observation Network Water Level
Previous observations
TIME
(EDT)
5-day plot - Wind Direction
WDIR
 
5-day plot - Wind Speed
WSPD
kts
5-day plot - Wind Gust
GST
kts
5-day plot - Wave Height
WVHT
ft
5-day plot - Dominant Wave Period
DPD
sec
5-day plot - Average Wave Period
APD
sec
5-day plot - Mean Wave Direction
MWD
 
5-day plot - Atmospheric Pressure
PRES
in
5-day plot - Pressure Tendency
PTDY
in
5-day plot - Air Temperature
ATMP
°F
5-day plot - Water Temperature
WTMP
°F
5-day plot - Dew Point
DEWP
°F
5-day plot - Salinity
SAL
psu
5-day plot - Visibility
VIS
nmi
5-day plot - Tide (above MLLW)
TIDE
ft
2024-04-17 04:24 am E 8.0 12.0------ 47.5- 45.3---
2024-04-17 04:18 am E 9.9 12.0------ 47.1- 45.0---
2024-04-17 04:12 am E 8.0 8.9------ 47.1- 44.4---
2024-04-17 04:06 am SE 1.9 2.9------ 48.9- 43.5---
2024-04-17 04:00 am NW 1.9 2.9------ 48.9- 42.3---
2024-04-17 03:54 am- 0.0 6.0------ 49.5- 41.7---
2024-04-17 03:48 am E 5.1 7.0------ 49.8- 41.4---
2024-04-17 03:42 am E 5.1 8.0------ 49.3- 41.4---
2024-04-17 03:36 amENE 6.0 8.0------ 49.6- 40.8---
2024-04-17 03:30 amNNE 2.9 8.9------ 49.3- 40.8---
2024-04-17 03:24 amESE 8.0 9.9------ 52.3- 38.7---
2024-04-17 03:18 am W 8.0 12.0------------
2024-04-17 03:12 am NE 1.9 8.9------ 51.3- 38.7---
2024-04-17 03:06 amESE 6.0 12.0------ 51.1- 38.5---
2024-04-17 03:00 am E 7.0 9.9------ 50.7- 38.5---
2024-04-17 02:54 amWNW 5.1 13.0------ 50.4- 38.1---
2024-04-17 02:48 am W 5.1 8.9------ 52.0- 37.9---
2024-04-17 02:42 am W 8.0 11.1------ 50.2- 37.6---
2024-04-17 02:36 amESE 5.1 15.0------ 51.6- 37.9---
2024-04-17 02:30 am E 9.9 17.1------ 51.1- 37.8---
2024-04-17 02:24 am E 8.9 20.0------ 50.9- 37.8---
2024-04-17 02:18 am E 11.1 19.0------ 51.1- 37.9---
2024-04-17 02:12 am E 12.0 19.0------ 50.9- 38.1---
2024-04-17 02:06 am E 14.0 21.0------ 50.7- 37.8---
2024-04-17 02:00 am E 13.0 17.1------ 50.9- 37.8---
2024-04-17 01:54 am E 11.1 19.0------ 50.7- 37.6---
2024-04-17 01:48 am E 12.0 17.1------ 51.3- 37.0---
2024-04-17 01:42 am E 11.1 15.9------ 51.6- 36.5---
2024-04-17 01:36 am E 11.1 18.1------ 52.2- 36.0---
2024-04-17 01:30 amESE 12.0 17.1------ 52.7- 35.6---
2024-04-17 01:24 amESE 9.9 18.1------ 53.2- 35.1---
2024-04-17 01:18 amESE 11.1 22.0------ 54.1- 34.2---
2024-04-17 01:12 am E 12.0 22.9------ 55.2- 32.9---
2024-04-17 01:06 am E 11.1 19.0------ 55.2- 32.5---
2024-04-17 01:00 am E 12.0 19.0------ 55.2- 32.2---
2024-04-17 12:54 amESE 9.9 19.0------ 55.2- 31.8---
2024-04-17 12:48 amESE 12.0 22.0------ 55.4- 31.5---
2024-04-17 12:42 am E 15.0 22.0------ 55.4- 31.6---
2024-04-17 12:36 am E 11.1 22.0------ 55.2- 31.5---
2024-04-17 12:30 amESE 12.0 19.0------ 55.4- 31.6---
2024-04-17 12:24 amESE 15.0 21.0------ 55.4- 31.5---
2024-04-17 12:18 amESE 13.0 18.1------------
2024-04-17 12:12 am E 12.0 26.0------ 56.3- 30.6---
2024-04-17 12:06 amESE 14.0 21.0------ 56.5- 30.9---
2024-04-17 12:00 amESE 17.1 26.0------ 56.7- 30.9---
2024-04-16 11:54 pm E 13.0 24.1------ 56.7- 31.3---
2024-04-16 11:48 pm E 15.0 22.0------ 56.7- 31.5---
2024-04-16 11:42 pm E 13.0 20.0------ 56.7- 31.6---
2024-04-16 11:36 pmESE 11.1 21.0------ 56.7- 31.6---
2024-04-16 11:30 pm E 14.0 20.0------ 56.7- 31.6---
2024-04-16 11:24 pm E 12.0 20.0------ 56.8- 32.2---
2024-04-16 11:18 pmESE 13.0 21.0------ 56.8- 32.5---
2024-04-16 11:12 pm E 12.0 18.1------ 56.8- 32.7---
2024-04-16 11:06 pm E 13.0 24.1------ 57.4- 32.2---
2024-04-16 11:00 pm E 13.0 22.0------ 57.4- 32.4---
2024-04-16 10:54 pm E 11.1 19.0------ 57.4- 32.5---
2024-04-16 10:48 pm E 12.0 22.0------ 57.4- 32.5---
2024-04-16 10:42 pm E 13.0 21.0------ 57.4- 32.9---
2024-04-16 10:36 pm E 14.0 25.1------ 57.4- 32.9---
2024-04-16 10:30 pm E 14.0 21.0------ 57.4- 33.4---
2024-04-16 10:24 pm E 14.0 21.0------ 57.4- 33.8---
2024-04-16 10:12 pm E 13.0 21.0------ 57.6- 34.2---
2024-04-16 10:06 pm E 15.0 22.9------ 57.6- 34.2---
2024-04-16 10:00 pm E 13.0 25.1------ 57.4- 34.2---
2024-04-16 09:54 pm E 14.0 22.0------ 57.6- 34.2---
2024-04-16 09:48 pm E 17.1 22.9------ 57.7- 34.5---
2024-04-16 09:42 pm E 15.9 29.9------ 57.7- 35.1---
2024-04-16 09:36 pm E 13.0 22.9------ 57.7- 36.5---
2024-04-16 09:30 pm E 15.9 22.9------ 58.1- 36.9---
2024-04-16 09:24 pm E 13.0 20.0------ 58.3- 36.7---
2024-04-16 09:18 pm E 17.1 26.0------------
2024-04-16 09:12 pm E 15.0 24.1------ 58.8- 37.2---
2024-04-16 09:06 pm E 14.0 24.1------ 58.8- 37.8---
2024-04-16 09:00 pm E 13.0 22.0------ 58.8- 37.9---
2024-04-16 08:54 pm E 13.0 21.0------ 59.2- 38.1---
2024-04-16 08:48 pm E 12.0 22.9------ 60.1- 37.2---
2024-04-16 08:42 pm E 12.0 17.1------ 60.6- 37.2---
2024-04-16 08:36 pm E 11.1 19.0------ 60.8- 37.4---
2024-04-16 08:30 pm E 11.1 20.0------ 61.0- 37.0---
2024-04-16 08:24 pmESE 13.0 20.0------ 62.2- 36.7---
2024-04-16 08:18 pmESE 11.1 18.1------ 62.1- 36.3---
2024-04-16 08:12 pm E 12.0 21.0------ 62.6- 36.0---
2024-04-16 08:06 pm E 12.0 21.0------ 63.0- 35.4---
2024-04-16 08:00 pm E 13.0 20.0------ 64.2- 33.3---
2024-04-16 07:54 pm E 12.0 19.0------ 64.0- 33.1---
2024-04-16 07:48 pm E 15.9 22.0------------
2024-04-16 07:42 pm E 11.1 21.0------ 64.2- 32.7---
2024-04-16 07:36 pm E 12.0 17.1------ 64.4- 32.5---
2024-04-16 07:30 pm E 15.9 21.0------ 64.6- 32.2---
2024-04-16 07:24 pm E 14.0 22.0------ 64.9- 31.8---
2024-04-16 07:18 pm E 15.9 22.9------ 64.9- 31.5---
2024-04-16 07:12 pm E 11.1 22.0------ 65.1- 31.1---
2024-04-16 07:06 pm E 13.0 20.0------ 65.5- 30.4---
2024-04-16 07:00 pm E 13.0 22.9------ 65.8- 30.2---
2024-04-16 06:54 pm E 11.1 24.1------ 65.8- 29.8---
2024-04-16 06:48 pm E 12.0 19.0------ 66.0- 29.8---
2024-04-16 06:42 pm E 13.0 22.0------ 66.2- 29.5---
2024-04-16 06:36 pm E 15.0 22.0------ 66.6- 29.5---
2024-04-16 06:30 pm E 15.0 22.0------------
2024-04-16 06:24 pm E 15.0 25.1------------
2024-04-16 06:18 pm E 15.0 22.9------------
2024-04-16 06:12 pm E 15.9 25.1------------
2024-04-16 06:06 pm E 9.9 21.0------------
2024-04-16 06:00 pm E 15.9 21.0------ 67.6- 30.0---
2024-04-16 05:54 pm E 12.0 24.1------ 67.5- 30.6---
2024-04-16 05:48 pm E 12.0 19.0------ 67.6- 30.4---
2024-04-16 05:42 pm E 15.9 22.9------ 67.6- 30.0---
2024-04-16 05:36 pm E 11.1 21.0------ 68.2- 30.7---
2024-04-16 05:30 pm E 11.1 19.0------ 68.0- 31.3---
2024-04-16 05:24 pm E 13.0 19.0------ 68.2- 30.9---
2024-04-16 05:18 pm E 15.0 22.9------ 68.4- 31.1---
2024-04-16 05:12 pm E 12.0 19.0------ 68.7- 31.1---
2024-04-16 05:06 pm E 14.0 21.0------ 69.1- 31.1---
2024-04-16 05:00 pm E 12.0 18.1------ 69.1- 31.5---
2024-04-16 04:54 pm E 12.0 21.0------ 68.9- 31.5---
2024-04-16 04:48 pmESE 9.9 17.1------ 68.9- 31.3---
2024-04-16 04:42 pm E 13.0 22.0------ 68.5- 31.1---
2024-04-16 04:36 pm E 15.0 24.1------ 68.5- 30.6---
2024-04-16 04:30 pm E 12.0 19.0------ 68.9- 31.5---
2024-04-16 04:24 pm E 13.0 22.0------ 68.9- 32.0---
2024-04-16 04:18 pm E 12.0 18.1------ 69.1- 32.2---
2024-04-16 04:12 pm E 12.0 19.0------ 68.7- 32.4---
2024-04-16 04:06 pmENE 14.0 20.0------ 68.5- 32.2---
2024-04-16 04:00 pm E 13.0 18.1------ 68.5- 32.2---
2024-04-16 03:54 pm E 12.0 17.1------ 68.9- 31.3---
2024-04-16 03:48 pm E 9.9 17.1------ 69.6- 31.6---
2024-04-16 03:42 pm E 12.0 17.1------ 68.7- 29.8---
2024-04-16 03:36 pm E 8.0 17.1------ 69.1- 30.9---
2024-04-16 03:30 pm E 9.9 18.1------ 68.9- 30.6---
2024-04-16 03:24 pm E 12.0 15.9------ 68.4- 29.7---
2024-04-16 03:18 pm E 11.1 17.1------ 68.2- 30.2---
2024-04-16 03:12 pm E 12.0 18.1------ 68.2- 29.7---
2024-04-16 03:06 pm E 9.9 15.0------ 67.6- 29.7---
2024-04-16 03:00 pm E 8.9 17.1------ 68.0- 29.3---
2024-04-16 02:54 pm E 8.0 15.9------ 67.8- 30.2---
2024-04-16 02:48 pm E 11.1 19.0------ 67.3- 29.3---
2024-04-16 02:42 pm E 9.9 15.9------ 66.7- 29.3---
2024-04-16 02:36 pm E 12.0 18.1------ 66.6- 28.4---
2024-04-16 02:30 pm E 11.1 19.0------ 66.4- 28.0---
2024-04-16 02:24 pm E 9.9 15.9------ 66.7- 28.8---
2024-04-16 02:18 pm E 9.9 15.9------ 66.2- 28.4---
2024-04-16 02:12 pm E 12.0 18.1------ 65.3- 27.9---
2024-04-16 02:06 pm E 11.1 19.0------ 65.3- 28.0---
2024-04-16 02:00 pm E 13.0 19.0------ 65.1- 27.9---
2024-04-16 01:54 pm E 8.9 15.9------ 65.7- 29.1---
2024-04-16 01:48 pm E 12.0 18.1------ 64.6- 28.2---
2024-04-16 01:42 pmENE 11.1 15.0------ 64.8- 29.1---
2024-04-16 01:36 pm E 8.0 15.9------ 64.4- 30.6---
2024-04-16 01:30 pm E 12.0 19.0------ 63.9- 29.5---
2024-04-16 01:24 pm E 9.9 15.9------ 63.3- 30.2---
2024-04-16 01:18 pm E 8.9 15.0------ 63.0- 30.4---
2024-04-16 01:12 pm E 8.0 14.0------ 62.8- 30.6---
2024-04-16 01:06 pm E 8.9 12.0------ 62.6- 30.0---
2024-04-16 01:00 pmESE 8.0 11.1------ 62.8- 30.6---
2024-04-16 12:54 pm SE 8.9 15.0------ 62.2- 29.5---
2024-04-16 12:48 pm E 9.9 17.1------------
2024-04-16 12:42 pm E 8.9 14.0------ 61.9- 30.9---
2024-04-16 12:36 pm E 9.9 15.0------ 61.0- 30.4---
2024-04-16 12:30 pm E 9.9 13.0------ 60.6- 30.9---
2024-04-16 12:24 pm E 8.0 14.0------ 60.8- 31.6---
2024-04-16 12:18 pm E 8.9 15.0------------
2024-04-16 12:12 pm E 8.9 13.0------ 58.8- 31.5---
2024-04-16 12:06 pm E 8.0 13.0------ 59.2- 31.5---
2024-04-16 12:00 pm E 8.0 14.0------ 59.0- 32.2---
2024-04-16 11:54 am E 8.0 15.0------ 58.6- 32.7---
2024-04-16 11:48 am E 8.0 15.0------ 58.6- 33.4---
2024-04-16 11:42 am E 8.0 15.0------ 58.1- 33.8---
2024-04-16 11:36 am E 11.1 14.0------ 57.2- 34.0---
2024-04-16 11:30 am E 9.9 15.0------ 56.5- 34.0---
2024-04-16 11:24 am E 8.9 15.9------ 56.8- 34.5---
2024-04-16 11:18 am E 8.0 13.0------ 56.7- 34.9---
2024-04-16 11:12 am E 9.9 15.0------ 55.8- 34.3---
2024-04-16 11:06 am E 8.0 14.0------ 55.8- 34.9---
2024-04-16 11:00 am E 8.0 15.0------ 55.0- 34.7---
2024-04-16 10:54 am E 11.1 14.0------ 54.7- 34.7---
2024-04-16 10:48 am E 8.9 15.9------ 54.1- 34.7---
2024-04-16 10:42 amESE 6.0 15.9------ 54.1- 35.4---
2024-04-16 10:36 am E 8.9 15.0------ 53.2- 34.9---
2024-04-16 10:30 am E 8.0 12.0------ 52.9- 35.1---
2024-04-16 10:24 am E 8.9 15.0------ 52.3- 34.7---
2024-04-16 10:18 am E 8.9 15.0------------
2024-04-16 10:12 am E 8.9 14.0------ 51.4- 34.5---
2024-04-16 10:06 am E 11.1 15.9------ 51.3- 34.5---
2024-04-16 10:00 am E 11.1 18.1------ 50.7- 34.5---
2024-04-16 09:54 am E 8.0 14.0------ 50.5- 34.5---
2024-04-16 09:48 amESE 8.0 12.0------ 50.2- 34.3---
2024-04-16 09:42 am E 7.0 13.0------ 49.8- 34.7---
2024-04-16 09:36 am E 7.0 12.0------ 49.5- 34.5---
2024-04-16 09:30 am E 8.0 13.0------ 48.7- 34.2---
2024-04-16 09:24 am E 9.9 13.0------ 48.2- 33.8---
2024-04-16 09:18 am E 5.1 11.1------ 48.0- 34.0---
2024-04-16 09:12 am E 6.0 11.1------ 47.5- 33.8---
2024-04-16 09:06 am E 7.0 9.9------ 46.8- 33.1---
2024-04-16 09:00 am E 6.0 8.9------ 46.8- 33.4---
2024-04-16 08:54 am E 7.0 13.0------ 46.2- 32.9---
2024-04-16 08:48 am E 7.0 11.1------ 45.9- 32.5---
2024-04-16 08:42 am E 6.0 9.9------ 45.9- 32.7---
2024-04-16 08:36 am E 7.0 9.9------ 45.5- 32.4---
2024-04-16 08:30 am E 7.0 11.1------ 45.1- 32.2---
2024-04-16 08:24 am E 7.0 11.1------ 45.0- 32.2---
2024-04-16 08:18 am E 6.0 9.9------ 44.6- 31.8---
2024-04-16 08:12 am E 6.0 8.0------ 44.4- 31.8---
2024-04-16 08:06 am E 5.1 9.9------ 44.1- 31.8---
2024-04-16 08:00 am E 6.0 8.9------ 43.5- 31.5---
2024-04-16 07:54 am E 6.0 8.9------ 43.3- 31.6---
2024-04-16 07:48 am E 5.1 8.9------------
2024-04-16 07:42 am E 6.0 8.9------ 43.0- 31.6---
2024-04-16 07:36 am E 5.1 8.0------ 42.8- 31.8---
2024-04-16 07:30 am E 5.1 7.0------ 42.6- 31.5---
2024-04-16 07:24 amENE 5.1 6.0------ 42.6- 31.3---
2024-04-16 07:18 am E 5.1 6.0------ 42.6- 30.9---
2024-04-16 07:12 am E 4.1 6.0------ 42.4- 30.9---
2024-04-16 07:06 am E 4.1 6.0------ 42.6- 30.9---
2024-04-16 07:00 am E 5.1 8.0------ 42.6- 30.7---
2024-04-16 06:54 am E 5.1 6.0------ 42.8- 30.7---
2024-04-16 06:48 am E 4.1 6.0------ 43.0- 31.3---
2024-04-16 06:42 am E 4.1 8.0------ 43.2- 31.1---
2024-04-16 06:36 am E 4.1 8.0------ 43.3- 31.1---
2024-04-16 06:30 am E 6.0 7.0------ 43.2- 30.4---
2024-04-16 06:24 am E 5.1 8.0------ 43.3- 30.4---
2024-04-16 06:18 am E 6.0 8.9------ 43.7- 30.6---
2024-04-16 06:12 am E 7.0 8.9------ 44.1- 30.9---
2024-04-16 06:06 am E 6.0 8.9------ 44.1- 30.7---
2024-04-16 06:00 am E 6.0 8.9------ 44.1- 30.7---
2024-04-16 05:54 am E 6.0 8.9------ 44.2- 30.7---
2024-04-16 05:48 am E 5.1 8.0------ 44.4- 30.9---
2024-04-16 05:42 am E 6.0 8.9------ 44.6- 30.9---
2024-04-16 05:36 amENE 5.1 7.0------ 44.6- 31.1---
2024-04-16 05:30 amENE 5.1 8.0------ 44.6- 30.9---
2024-04-16 05:24 amENE 4.1 7.0------ 44.2- 30.7---
2024-04-16 05:18 amENE 4.1 6.0------ 44.2- 30.7---
2024-04-16 05:12 amENE 4.1 6.0------ 44.2- 30.4---
2024-04-16 05:06 amENE 4.1 6.0------ 43.9- 30.4---
2024-04-16 05:00 amENE 4.1 8.0------ 43.9- 30.4---
2024-04-16 04:54 amENE 4.1 7.0------ 43.9- 30.2---